Location: Unspecified
(0.0000°N, 0.0000°E)
Time: 12:47:17
(UTC+00:00)

FALCON 9 DEB - Pass Details

Date: 11 December 2019
Orbit: 256 x 274 km, 53.0° (Epoch: 11 December)

Event Time Altitude Azimuth Distance (km) Brightness Sun altitude
Rises 18:58:48 0° 187° (S) 1,863 6.8 -15.0°
Reaches altitude 10° 19:01:22 10° 154° (SSE) 1,050 5.1 -15.6°
Enters shadow 19:01:30 11° 151° (SSE) 1,022 5.0 -15.7°
